User: anonymous   Login
Location: Seminole
(32.7190°N, 102.6440°W)
Time: 07:00:54
(UTC-06:00)
Language:

Meteor 2-10 - Orbit

View from above orbital plane
View from above orbital plane
View from above satellite
View from above satellite

Ground track
Ground track

The orbit data is extracted from the following two-line orbital elements,

1 14452U 83109A   17016.75318902  .00000027  00000-0  53240-5 0  9995
2 14452  81.1603 229.1655 0091938 100.2604 260.8958 14.26420179727437
Epoch (UTC): 16 January 2017 18:04:35
Eccentricity: 0.0091938
inclination: 81.1603°
perigee height: 737 km
apogee height: 870 km
right ascension of ascending node: 229.1655°
argument of perigee: 100.2604°
revolutions per day: 14.26420179
mean anomaly at epoch: 260.8958°
orbit number at epoch: 72743

The dashed part of the orbit path shows where the satellite is in the earth's shadow,  

DLR